FW3809 Weather Reports


time (UTC)temp
C
wind
direction
speed
KPH
gust
KPH
rain 1hr
cm
rain 24hr
cm
rain mn
cm
humidity
%
barometer
mb
20260504223210 26 177 14.5 30.6 0.00 0.00 0.00 72 1010.6
20260504222707 26 172 12.9 30.6 0.00 0.00 0.00 72 1010.7
20260504222210 26 132 11.3 24.1 0.00 0.00 0.00 71 1010.9
20260504221708 26 159 9.7 22.5 0.00 0.00 0.00 71 1010.9
20260504221152 26 190 9.7 22.5 0.00 0.00 0.00 70 1010.9
20260504220651 26 191 11.3 27.4 0.00 0.00 0.00 71 1011.0
20260504220136 26 131 11.3 27.4 0.00 0.00 0.00 70 1011.0
20260504215625 26 145 11.3 25.7 0.00 0.00 0.00 69 1011.1
20260504215124 26 109 12.9 25.7 0.00 0.00 0.00 69 1011.1
20260504214624 26 124 12.9 22.5 0.00 0.00 0.00 68 1011.0
20260504214125 27 195 11.3 24.1 0.00 0.00 0.00 68 1011.1
20260504213607 27 170 11.3 22.5 0.00 0.00 0.00 67 1011.3
20260504213103 27 231 9.7 22.5 0.00 0.00 0.00 67 1011.2
20260504212620 27 216 11.3 19.3 0.00 0.00 0.00 66 1011.2
20260504212042 27 158 11.3 20.9 0.00 0.00 0.00 66 1011.3
20260504211514 27 145 9.7 20.9 0.00 0.00 0.00 66 1011.4
20260504210948 27 217 8.0 20.9 0.00 0.00 0.00 65 1011.4
20260504210700 27 125 8.0 19.3 0.00 0.00 0.00 64 1011.4
20260504205923 27 156 8.0 19.3 0.00 0.00 0.00 63 1011.6
20260504205358 27 55 8.0 16.1 0.00 0.00 0.00 65 1011.6
20260504204831 27 145 8.0 22.5 0.00 0.00 0.00 64 1011.7
20260504204306 27 204 9.7 22.5 0.00 0.00 0.00 64 1011.8
20260504203738 27 108 8.0 20.9 0.00 0.00 0.00 64 1011.7
20260504203235 28 193 6.4 20.9 0.00 0.00 0.00 63 1011.8
20260504202738 27 191 8.0 17.7 0.00 0.00 0.00 64 1011.9
20260504202229 27 185 9.7 24.1 0.00 0.00 0.00 63 1011.9
20260504201705 27 195 8.0 24.1 0.00 0.00 0.00 64 1012.1
20260504201201 27 187 9.7 19.3 0.00 0.00 0.00 64 1012.2
20260504200657 27 235 9.7 19.3 0.00 0.00 0.00 63 1012.4
20260504200132 28 219 6.4 14.5 0.00 0.00 0.00 62 1012.3
20260504195604 28 201 4.8 12.9 0.00 0.00 0.00 62 1012.4
20260504195101 28 179 6.4 20.9 0.00 0.00 0.00 64 1012.5
20260504194535 28 205 9.7 20.9 0.00 0.00 0.00 62 1012.6
20260504194008 28 116 9.7 19.3 0.00 0.00 0.00 62 1012.7
20260504193506 28 246 9.7 22.5 0.00 0.00 0.00 62 1012.7
20260504192939 28 212 11.3 22.5 0.00 0.00 0.00 63 1012.8
20260504192436 27 139 11.3 25.7 0.00 0.00 0.00 62 1012.9
20260504191908 27 203 11.3 25.7 0.00 0.00 0.00 62 1012.9
20260504191405 27 210 9.7 22.5 0.00 0.00 0.00 62 1013.0
20260504190838 27 195 8.0 20.9 0.00 0.00 0.00 62 1013.1
20260504190334 27 158 8.0 20.9 0.00 0.00 0.00 62 1013.2
20260504185832 27 185 8.0 16.1 0.00 0.00 0.00 61 1013.2
20260504185305 27 204 8.0 16.1 0.00 0.00 0.00 62 1013.2
20260504184802 27 133 9.7 19.3 0.00 0.00 0.00 63 1013.3
20260504184235 27 212 9.7 19.3 0.00 0.00 0.00 62 1013.4
20260504183710 28 197 9.7 29.0 0.00 0.00 0.00 62 1013.3
20260504183148 27 196 8.0 20.9 0.00 0.00 0.00 63 1013.1
20260504183142 27 177 9.7 29.0 0.00 0.00 0.00 63 1013.2
20260504182139 26 185 12.9 27.4 0.00 0.00 0.00 64 1013.5
20260504182134 26 131 11.3 27.4 0.00 0.00 0.00 64 1013.3
20260504181104 27 197 11.3 24.1 0.00 0.00 0.00 63 1013.6
20260504180831 26 118 11.3 22.5 0.00 0.00 0.00 63 1013.7
20260504180330 26 247 12.9 22.5 0.00 0.00 0.00 64 1013.9
20260504175531 26 220 12.9 22.5 0.00 0.00 0.00 63 1013.9
20260504175026 26 192 11.3 24.1 0.00 0.00 0.00 63 1013.8
20260504174523 26 177 11.3 24.1 0.00 0.00 0.00 63 1014.1
20260504173958 26 215 11.3 25.7 0.00 0.00 0.00 63 1014.1
20260504173430 26 189 11.3 25.7 0.00 0.00 0.00 64 1013.9
20260504173158 26 108 9.7 22.5 0.00 0.00 0.00 64 1014.1
20260504172630 26 204 9.7 19.3 0.00 0.00 0.00 64 1014.3
20260504171858 26 214 11.3 25.7 0.00 0.00 0.00 64 1014.5
20260504171356 26 187 9.7 25.7 0.00 0.00 0.00 64 1014.4
20260504170828 26 212 9.7 22.5 0.00 0.00 0.00 65 1014.5
20260504170327 26 121 9.7 22.5 0.00 0.00 0.00 66 1014.6
20260504160306 24 218 9.7 20.9 0.00 0.00 0.00 70 1015.4
20260504150829 23 138 11.3 19.3 0.00 0.00 0.00 73 1015.5
20260504150559 23 200 11.3 22.5 0.00 0.00 0.00 72 1015.3
20260504141016 22 131 3.2 8.0 0.00 0.00 0.00 72 1015.5
20260504140450 22 190 3.2 9.7 0.00 0.00 0.00 71 1015.4
20260504130634 20 152 3.2 8.0 0.00 0.00 0.00 77 1015.6
20260504130110 19 160 3.2 8.0 0.00 0.00 0.00 78 1015.5
20260504110537 16 172 0.0 3.2 0.00 0.00 0.00 83 1015.0
20260504100158 17 173 0.0 3.2 0.00 0.00 0.00 80 1015.3
20260504081850 17 177 1.6 4.8 0.00 0.00 0.00 78 1015.9
20260504081554 17 177 1.6 4.8 0.00 0.00 0.00 77 1016.0
20260504080818 17 177 1.6 6.4 0.00 0.00 0.00 77 1016.0
20260504080316 17 177 1.6 6.4 0.00 0.00 0.00 77 1016.2
20260504060214 18 175 1.6 6.4 0.00 0.00 0.00 71 1017.5
20260504050456 19 161 3.2 9.7 0.00 0.00 0.00 68 1017.9
20260504050201 19 161 3.2 8.0 0.00 0.00 0.00 68 1017.8
20260504045427 19 161 1.6 8.0 0.00 0.00 0.00 68 1017.9
20260504044901 19 161 1.6 8.0 0.00 0.00 0.00 67 1018.0
20260504044334 19 161 3.2 8.0 0.00 0.00 0.00 67 1017.9
20260504043832 19 161 3.2 6.4 0.00 0.00 0.00 67 1018.0
20260504043305 19 161 3.2 9.7 0.00 0.00 0.00 67 1018.0
20260504042800 19 161 3.2 9.7 0.00 0.00 0.00 67 1018.0
20260504042258 20 156 1.6 8.0 0.00 0.00 0.00 67 1018.2
20260504041731 20 155 1.6 8.0 0.00 0.00 0.00 67 1018.1
20260504041221 20 155 1.6 8.0 0.00 0.00 0.00 66 1018.1
20260504040718 20 155 1.6 4.8 0.00 0.00 0.00 66 1018.0
20260504040446 20 155 1.6 8.0 0.00 0.00 0.00 66 1018.0
20260504035710 20 155 4.8 9.7 0.00 0.00 0.00 65 1018.1
20260504035213 20 155 4.8 9.7 0.00 0.00 0.00 65 1018.0
20260504034639 20 167 3.2 11.3 0.00 0.00 0.00 65 1018.1
20260504034137 20 143 3.2 11.3 0.00 0.00 0.00 65 1018.2
20260504033612 20 161 3.2 8.0 0.00 0.00 0.00 65 1018.1
20260504033314 20 161 6.4 14.5 0.00 0.00 0.00 65 1018.1
20260504032812 20 154 6.4 16.1 0.00 0.00 0.00 64 1018.1
20260504032016 20 106 6.4 16.1 0.00 0.00 0.00 64 1018.0
20260504031718 20 168 4.8 16.1 0.00 0.00 0.00 64 1018.0
20260504031219 20 144 6.4 16.1 0.00 0.00 0.00 64 1018.0
20260504030419 20 142 6.4 14.5 0.00 0.00 0.00 63 1017.8
20260504025853 21 149 6.4 14.5 0.00 0.00 0.00 63 1017.8
20260504025350 21 137 4.8 14.5 0.00 0.00 0.00 63 1017.8
20260504024824 21 141 6.4 14.5 0.00 0.00 0.00 63 1017.8
20260504024256 21 144 6.4 16.1 0.00 0.00 0.00 63 1017.9
20260504024024 21 134 6.4 16.1 0.00 0.00 0.00 62 1017.9
20260504023228 21 162 6.4 14.5 0.00 0.00 0.00 62 1017.9
20260504022931 21 160 8.0 16.1 0.00 0.00 0.00 62 1017.9
20260504022157 21 133 8.0 16.1 0.00 0.00 0.00 62 1017.8
20260504021631 21 174 8.0 16.1 0.00 0.00 0.00 61 1017.8
20260504021336 21 147 8.0 16.1 0.00 0.00 0.00 60 1017.7
20260504020602 21 120 8.0 19.3 0.00 0.00 0.00 60 1017.7
20260504020035 21 147 9.7 19.3 0.00 0.00 0.00 60 1017.7
20260504015511 22 150 8.0 19.3 0.00 0.00 0.00 59 1017.7
20260504015012 22 73 8.0 19.3 0.00 0.00 0.00 59 1017.7
20260504014446 22 129 8.0 17.7 0.00 0.00 0.00 58 1017.7
20260504013919 22 177 8.0 19.3 0.00 0.00 0.00 58 1017.7
20260504013355 22 126 9.7 19.3 0.00 0.00 0.00 57 1017.6
20260504013336 22 133 9.7 17.7 0.00 0.00 0.00 56 1017.5
20260504012327 22 156 8.0 17.7 0.00 0.00 0.00 56 1017.5
20260504011827 22 125 6.4 16.1 0.00 0.00 0.00 56 1017.4
20260504011324 22 162 8.0 19.3 0.00 0.00 0.00 55 1017.4
20260504010826 22 206 9.7 24.1 0.00 0.00 0.00 55 1017.4
20260504010306 22 143 9.7 24.1 0.00 0.00 0.00 55 1017.4
20260504005750 23 143 8.0 20.9 0.00 0.00 0.00 55 1017.3
20260504005459 23 164 6.4 16.1 0.00 0.00 0.00 54 1017.4
20260504004703 23 143 8.0 16.1 0.00 0.00 0.00 54 1017.4
20260504004139 23 156 6.4 16.1 0.00 0.00 0.00 53 1017.4
20260504003909 23 179 8.0 17.7 0.00 0.00 0.00 53 1017.4
20260504003134 23 131 8.0 17.7 0.00 0.00 0.00 53 1017.3
20260504002617 23 139 8.0 17.7 0.00 0.00 0.00 52 1017.4
20260504002055 24 132 8.0 17.7 0.00 0.00 0.00 51 1017.4
20260504001556 25 156 6.4 16.1 0.00 0.00 0.00 50 1017.3
20260504001040 25 150 8.0 19.3 0.00 0.00 0.00 50 1017.3
20260504000534 25 164 9.7 19.3 0.00 0.00 0.00 49 1017.4
20260504000033 25 147 9.7 22.5 0.00 0.00 0.00 49 1017.5
20260503235508 25 204 8.0 22.5 0.00 0.00 0.00 49 1017.5
20260503234949 25 123 9.7 19.3 0.00 0.00 0.00 48 1017.3
20260503234416 25 143 9.7 20.9 0.00 0.00 0.00 47 1017.4
20260503233850 26 158 8.0 14.5 0.00 0.00 0.00 46 1017.5
20260503233348 26 136 9.7 22.5 0.00 0.00 0.00 46 1017.6
20260503232842 26 162 8.0 22.5 0.00 0.00 0.00 45 1017.6
20260503232546 26 202 6.4 17.7 0.00 0.00 0.00 45 1017.7
20260503231750 26 121 6.4 16.1 0.00 0.00 0.00 43 1017.6
20260503231224 26 130 6.4 17.7 0.00 0.00 0.00 42 1017.5
20260503230658 26 127 8.0 19.3 0.00 0.00 0.00 43 1017.5
20260503230131 26 170 6.4 19.3 0.00 0.00 0.00 43 1017.6
20260503225629 26 139 4.8 16.1 0.00 0.00 0.00 42 1017.7
20260503225103 26 142 4.8 12.9 0.00 0.00 0.00 41 1017.7
20260503224537 26 156 6.4 14.5 0.00 0.00 0.00 42 1017.8
20260503224009 26 97 6.4 16.1 0.00 0.00 0.00 42 1017.8
20260503223737 26 131 6.4 16.1 0.00 0.00 0.00 42 1017.9